This is the latest recevied weather packets stored in our database for station/object K1WJY. If no packets are shown the sender has not sent any weather packets the latest 10 day(s).
| Time | Temp. | Humidity | Pressure | Rain* | Wind** | Luminosity | Snow |
|---|---|---|---|---|---|---|---|
| 1777743937 | 8.89° C | 69% | 1016 hPa | 0 mm | - | 84 W/m² | - |
| 1777743633 | 9.44° C | 66% | 1015.8 hPa | 0 mm | - | 82 W/m² | - |
| 1777743331 | 10° C | 65% | 1015.5 hPa | 0 mm | - | 112 W/m² | - |
| 1777743029 | 10° C | 65% | 1015.9 hPa | 0 mm | - | 128 W/m² | - |
| 1777742726 | 10° C | 63% | 1016 hPa | 0 mm | - | 126 W/m² | - |
| 1777742422 | 10° C | 62% | 1016.1 hPa | 0 mm | - | 152 W/m² | - |
| 1777742118 | 10° C | 63% | 1016 hPa | 0 mm | - | 240 W/m² | - |
| 1777741815 | 10° C | 60% | 1016.1 hPa | 0 mm | - | 245 W/m² | - |
| 1777741512 | 10° C | 58% | 1016.1 hPa | 0 mm | - | 247 W/m² | - |
| 1777741209 | 10° C | 61% | 1016.3 hPa | 0 mm | - | 246 W/m² | - |
| 1777740905 | 10° C | 62% | 1016.3 hPa | 0 mm | - | 338 W/m² | - |
| 1777740602 | 10° C | 64% | 1016.6 hPa | 0 mm | - | 339 W/m² | - |
| 1777740298 | 10° C | 62% | 1016.8 hPa | 0 mm | - | 277 W/m² | - |
| 1777739995 | 9.44° C | 64% | 1016.7 hPa | 0 mm | - | 263 W/m² | - |
| 1777739691 | 9.44° C | 65% | 1016.8 hPa | 0 mm | - | 246 W/m² | - |
| 1777739389 | 9.44° C | 65% | 1016.9 hPa | 0 mm | - | 230 W/m² | - |
| 1777739085 | 8.89° C | 67% | 1017 hPa | 0 mm | - | 215 W/m² | - |
| 1777738783 | 9.44° C | 70% | 1016.8 hPa | 0 mm | - | 198 W/m² | - |
| 1777738478 | 9.44° C | 68% | 1016.7 hPa | 0 mm | - | 176 W/m² | - |
| 1777738177 | 10° C | 67% | 1016.9 hPa | 0 mm | - | 244 W/m² | - |
| 1777737875 | 10° C | 67% | 1016.8 hPa | 0 mm | - | 226 W/m² | - |
| 1777737573 | 10° C | 69% | 1017 hPa | 0 mm | - | 211 W/m² | - |
| 1777737271 | 10° C | 68% | 1016.9 hPa | 0 mm | - | 354 W/m² | - |
| 1777736967 | 10° C | 67% | 1017.2 hPa | 0 mm | - | 409 W/m² | - |
| 1777736061 | 10.56° C | 71% | 1017.1 hPa | 0 mm | - | 306 W/m² | - |
* Rain latest hour (hover to see other rain measurements)
** Current wind speed in m/s (hover to see current wind gust speed)